Waarnemingen

Advertentie
Mijn weer
Capo Carbonara, Italië (16564): temperatuur & dauwpunt: 17.10.2018 22:00:00 - 23.10.2018 22:00:00 (CEST)Capo Carbonara, Italië (16564): windsnelheid: 17.10.2018 22:00:00 - 23.10.2018 22:00:00 (CEST)Capo Carbonara, Italië (16564): windrichting: 17.10.2018 22:00:00 - 23.10.2018 22:00:00 (CEST)Capo Carbonara, Italië (16564): luchtdruk: 17.10.2018 22:00:00 - 23.10.2018 22:00:00 (CEST)Capo Carbonara, Italië (16564): zicht: 17.10.2018 22:00:00 - 23.10.2018 22:00:00 (CEST)
Datum & Tijd tt [°C] td [°C] ff [km/u] ff [kn] dd ppp [hPa] vv [km]
23.10.2018 22:00:00 18,0 14,0 9 5 NO - 10
23.10.2018 21:00:00 18,0 14,0 13 7 NO - 10
23.10.2018 20:00:00 18,0 14,9 21 11 NNO 1018,9 18
23.10.2018 19:00:00 18,0 15,0 15 8 NO - 10
23.10.2018 18:00:00 20,0 16,0 18 10 NO - 10
23.10.2018 17:00:00 20,0 15,4 26 14 NO 1018,3 18
23.10.2018 16:00:00 20,0 15,0 22 12 NO - 10
23.10.2018 15:00:00 20,0 15,0 21 11 NO - 10
23.10.2018 14:00:00 20,8 14,0 35 19 NO 1018,3 18
23.10.2018 13:00:00 20,0 13,0 31 17 NO - 10
23.10.2018 12:00:00 20,0 13,0 37 20 NNO - 10
23.10.2018 11:00:00 19,4 12,7 31 17 N 1018,4 10
23.10.2018 10:00:00 18,0 12,0 37 20 NNO - 10
23.10.2018 09:00:00 18,0 12,0 28 15 NNO - 10
23.10.2018 08:00:00 17,2 11,7 16 9 N 1018,0 15
23.10.2018 07:00:00 17,0 11,0 29 16 NNO - 10
23.10.2018 06:00:00 17,0 11,0 34 18 NNO - 10
23.10.2018 05:00:00 17,0 10,8 31 17 NNO 1016,0 10
23.10.2018 04:00:00 17,0 11,0 16 9 N - 10
23.10.2018 03:00:00 17,0 12,0 13 7 WNW - 10
23.10.2018 02:00:00 17,0 10,8 21 11 WNW 1016,0 18
23.10.2018 01:00:00 17,0 10,0 16 9 NW - 10
23.10.2018 00:00:00 17,0 9,0 24 13 WNW - 10
22.10.2018 23:00:00 17,2 8,6 24 13 N 1016,0 18
22.10.2018 22:00:00 17,0 9,0 28 15 N - 10
22.10.2018 21:00:00 17,0 8,0 22 12 NW - 10
22.10.2018 20:00:00 17,0 8,4 24 13 NNO 1014,0 18
22.10.2018 19:00:00 17,0 8,0 37 20 NNO - 10
22.10.2018 18:00:00 20,0 11,0 42 23 NO - 10
22.10.2018 17:00:00 18,0 9,6 39 21 NO 1013,3 18
22.10.2018 16:00:00 19,0 10,0 35 19 NO - 10
22.10.2018 15:00:00 20,0 10,0 29 16 NO - 10
22.10.2018 14:00:00 18,4 9,2 34 18 NNO 1013,9 18
22.10.2018 13:00:00 18,0 10,0 34 18 NO - 10
22.10.2018 12:00:00 17,0 8,0 39 21 NO - 10
22.10.2018 11:00:00 16,4 7,9 44 24 NO 1014,8 15
22.10.2018 10:00:00 16,0 7,0 46 25 NO - 10
22.10.2018 09:00:00 17,0 8,0 42 23 NO - 10
22.10.2018 08:00:00 16,8 10,4 37 20 NO 1013,6 15
22.10.2018 07:00:00 17,0 10,0 44 24 NO - 10
22.10.2018 06:00:00 19,0 15,0 46 25 NO - 10
22.10.2018 05:00:00 18,8 14,7 42 23 NO 1013,7 10
22.10.2018 04:00:00 20,0 15,0 15 8 NNO - 10
22.10.2018 03:00:00 20,0 15,0 35 19 NW - 10
22.10.2018 02:00:00 20,4 15,4 28 15 WZW 1014,2 12
22.10.2018 01:00:00 20,0 15,0 29 16 W - 10
22.10.2018 00:00:00 20,0 16,0 22 12 W - 10
21.10.2018 23:00:00 20,2 17,8 29 16 W 1014,6 12
21.10.2018 22:00:00 20,0 16,0 18 10 WNW - 10
21.10.2018 21:00:00 21,0 16,0 29 16 W - 10
21.10.2018 20:00:00 20,6 16,8 29 16 W 1014,8 15
21.10.2018 19:00:00 23,0 18,0 18 10 W - 10
21.10.2018 18:00:00 23,0 19,0 26 14 W - 10
21.10.2018 17:00:00 22,2 20,3 31 17 ZW 1015,3 15
21.10.2018 16:00:00 23,0 20,0 41 22 WZW - 10
21.10.2018 15:00:00 23,0 20,0 39 21 WZW - 10
21.10.2018 14:00:00 23,4 19,4 35 19 WZW 1017,4 12
21.10.2018 13:00:00 22,0 19,0 29 16 WZW - 10
21.10.2018 12:00:00 21,0 19,0 26 14 WZW - 10
21.10.2018 11:00:00 20,6 18,2 22 12 WZW 1018,9 12
21.10.2018 10:00:00 20,0 17,0 4 2 ZW - 10
21.10.2018 09:00:00 20,0 16,0 2 1 WZW - 10
21.10.2018 08:00:00 19,2 16,7 0 0 N 1018,8 12
21.10.2018 07:00:00 20,0 17,0 4 2 NW - 10
21.10.2018 06:00:00 20,0 18,0 9 5 W - 10
21.10.2018 05:00:00 20,0 17,4 4 2 WNW 1019,6 10
21.10.2018 04:00:00 20,0 18,0 0 0 N - 10
21.10.2018 03:00:00 20,0 18,0 8 4 ONO - 10
21.10.2018 02:00:00 19,8 17,9 9 5 ONO 1020,2 18
21.10.2018 01:00:00 20,0 18,0 5 3 ONO - 10
21.10.2018 00:00:00 20,0 17,0 4 2 NO - 10
20.10.2018 23:00:00 20,0 18,1 9 5 NO 1020,5 18
20.10.2018 22:00:00 20,0 18,0 9 5 ONO - 10
20.10.2018 21:00:00 21,0 18,0 8 4 ONO - 10
20.10.2018 20:00:00 21,0 18,9 9 5 ONO 1020,1 18
20.10.2018 19:00:00 21,0 19,0 11 6 O - 10
20.10.2018 18:00:00 22,0 19,0 11 6 O - 10
20.10.2018 17:00:00 23,0 19,4 15 8 O 1019,9 14
20.10.2018 16:00:00 23,0 20,0 15 8 ONO - 10
20.10.2018 15:00:00 23,0 20,0 21 11 ONO - 10
20.10.2018 14:00:00 24,0 19,5 22 12 ONO 1019,9 16
20.10.2018 13:00:00 23,0 19,0 18 10 ONO - 10
20.10.2018 12:00:00 22,0 18,0 18 10 ONO - 10
20.10.2018 11:00:00 21,8 18,2 21 11 ONO 1020,2 14
20.10.2018 10:00:00 21,0 18,0 21 11 NO - 10
20.10.2018 09:00:00 20,0 18,0 18 10 NO - 10
20.10.2018 08:00:00 19,6 17,4 21 11 NO 1018,7 14
20.10.2018 07:00:00 20,0 18,0 21 11 NO - 10
20.10.2018 06:00:00 20,0 18,0 22 12 NO - 10
20.10.2018 05:00:00 20,0 18,0 22 12 NO 1018,0 10
20.10.2018 04:00:00 20,0 18,0 22 12 NO - 10
20.10.2018 03:00:00 - - - - - - -
20.10.2018 02:00:00 20,2 17,8 21 11 NO 1017,4 12
20.10.2018 01:00:00 20,0 18,0 22 12 NO - 10
20.10.2018 00:00:00 20,0 18,0 26 14 NO - 10
19.10.2018 23:00:00 20,8 18,5 28 15 NO 1016,9 16
19.10.2018 22:00:00 21,0 19,0 29 16 NO - 10
19.10.2018 21:00:00 21,0 19,0 24 13 NO - 10
19.10.2018 20:00:00 21,0 19,1 31 17 ONO 1015,8 10
19.10.2018 19:00:00 21,0 19,0 29 16 NO - 10
19.10.2018 18:00:00 22,0 20,0 29 16 NO - 10
19.10.2018 17:00:00 22,8 19,7 37 20 ONO 1013,9 20
19.10.2018 16:00:00 - - - - - - -
19.10.2018 15:00:00 23,0 20,0 34 18 NO - 10
19.10.2018 14:00:00 23,0 19,4 31 17 ONO 1013,8 25
19.10.2018 13:00:00 23,0 19,0 31 17 ONO - 10
19.10.2018 12:00:00 23,0 18,0 22 12 ONO - 10
19.10.2018 11:00:00 22,0 17,2 29 16 NO 1013,7 25
19.10.2018 10:00:00 21,0 18,0 26 14 ONO - 10
19.10.2018 09:00:00 21,0 18,0 21 11 NO - 10
19.10.2018 08:00:00 20,0 17,6 28 15 ONO 1011,4 16
19.10.2018 07:00:00 20,0 18,0 26 14 O - 10
19.10.2018 06:00:00 20,0 18,0 28 15 ONO - 10
19.10.2018 05:00:00 20,2 18,2 28 15 O 1009,9 10
19.10.2018 04:00:00 21,0 19,0 26 14 O - 10
19.10.2018 03:00:00 21,0 19,0 31 17 ONO - 10
19.10.2018 02:00:00 21,0 19,3 34 18 ONO 1009,7 16
19.10.2018 01:00:00 21,0 19,0 29 16 ONO - 10
19.10.2018 00:00:00 21,0 19,0 34 18 ONO - 10
18.10.2018 23:00:00 21,0 19,4 28 15 O 1009,6 20
18.10.2018 22:00:00 21,0 19,0 42 23 ONO - 10
18.10.2018 21:00:00 21,0 19,0 44 24 NO - 10
18.10.2018 20:00:00 20,6 17,7 42 23 NO 1008,1 20
18.10.2018 19:00:00 20,0 18,0 46 25 NO - 10
18.10.2018 18:00:00 21,0 17,0 39 21 NO - 10
18.10.2018 17:00:00 21,0 17,2 42 23 NO 1006,2 20
18.10.2018 16:00:00 21,0 17,0 44 24 ONO - 10
18.10.2018 15:00:00 20,0 17,0 46 25 ONO - 10
18.10.2018 14:00:00 20,4 16,0 41 22 ONO 1006,6 20
18.10.2018 13:00:00 21,0 18,0 42 23 O - 10
18.10.2018 12:00:00 20,0 16,0 44 24 ONO - 10
18.10.2018 11:00:00 19,0 15,9 34 18 ONO 1007,3 10
18.10.2018 10:00:00 - - - - - - -
18.10.2018 09:00:00 18,0 16,0 29 16 ONO - 10
18.10.2018 08:00:00 18,0 15,4 26 14 ONO 1006,6 12
18.10.2018 07:00:00 17,0 14,0 24 13 O - 10
18.10.2018 06:00:00 17,0 15,0 42 23 OZO - 8
18.10.2018 05:00:00 20,6 19,2 169 91 ONO 1005,9 12
18.10.2018 04:00:00 21,0 20,0 57 31 ONO - 10
18.10.2018 03:00:00 20,0 19,0 54 29 ONO - 10
18.10.2018 02:00:00 19,0 15,5 46 25 NO 1008,6 12
18.10.2018 01:00:00 18,0 16,0 41 22 NO - 10
18.10.2018 00:00:00 18,0 15,0 35 19 NO - 10
17.10.2018 23:00:00 17,8 15,3 34 18 NO 1010,9 10
17.10.2018 22:00:00 18,0 15,0 37 20 ONO - 10

tt = temperatuur
td = dauwpunt
ff = windsnelheid
dd = windrichting
ppp = luchtdruk
vv = zicht

Weerstations in de omgeving